Temperature
16 17 17 17 14 12 14 15 15 16 18 20 20 20 19 19 19 20 20 21 21 20 18 18 17 17 17 17 16 16 16 16 16 16 16 16 16 15 15 15 16 16 16 16 16 16 16 16 16
16 16 17 16 13 13 14 14 16 17 19 19 19 19 19 18 19 19 20 20 20 20 19 18 17 17 17 17 16 16 16 16 16 16 16 16 16 15 15 16 16 16 16 16 16 16 16 16 16
15 16 16 12 12 13 15 16 16 17 19 19 19 19 18 18 18 19 20 19 19 19 19 18 17 17 17 17 17 16 16 17 17 17 17 16 16 16 16 16 16 16 16 16 16 16 16 16 16
15 15 15 12 13 13 15 16 16 16 19 19 19 18 18 18 18 19 19 19 19 19 18 17 17 17 17 17 17 17 17 17 17 17 17 16 16 16 16 16 16 16 16 16 16 16 16 16 16
14 15 12 12 13 14 14 15 16 16 17 18 18 17 17 18 18 19 19 18 19 19 18 17 17 17 17 17 17 17 17 17 17 17 17 16 16 16 16 16 16 16 16 16 16 16 16 16 16
14 13 11 11 13 14 15 16 16 16 17 18 17 16 16 18 18 18 18 18 18 18 18 17 16 16 17 17 17 17 17 17 17 17 17 16 16 16 16 16 16 16 16 16 16 16 16 16 15
13 11 11 12 13 14 15 16 16 15 16 17 17 16 16 17 18 18 17 17 17 17 17 16 16 16 16 17 17 17 18 18 18 17 17 17 16 16 17 17 16 16 16 16 16 16 16 16 16
13 11 11 12 13 14 15 16 16 16 16 17 17 16 16 17 17 17 17 16 16 16 16 16 16 16 16 17 17 17 18 18 18 18 17 17 17 17 17 17 17 16 16 16 16 16 16 16 16
12 11 11 12 13 14 15 15 15 16 17 17 16 16 17 17 17 16 16 16 15 15 16 16 16 16 16 16 17 17 17 18 18 18 18 18 17 17 17 17 17 17 16 16 16 16 16 16 15
11 11 12 13 14 14 14 14 14 16 15 16 16 16 16 17 17 16 16 16 15 15 15 15 15 16 16 16 17 17 17 18 18 18 18 18 18 17 17 17 17 17 17 16 16 16 16 16 15
10 10 12 13 14 15 14 13 14 15 14 15 15 15 15 16 17 16 16 17 16 16 16 15 15 16 16 16 17 17 17 17 17 17 17 17 18 18 18 17 17 17 17 16 16 16 16 15 15
10 10 12 13 14 14 14 14 13 14 15 15 15 16 15 16 16 17 17 17 17 16 16 16 16 16 16 16 16 16 17 17 17 17 17 17 17 17 17 17 17 17 16 16 16 16 15 15 15
9 11 12 13 14 14 14 14 13 14 15 16 16 16 16 16 17 17 17 17 17 17 17 16 16 16 16 16 16 16 16 16 16 16 17 17 17 17 16 16 16 16 16 16 15 15 15 15 15
10 11 12 12 13 13 13 13 13 15 16 16 16 16 16 16 17 17 17 17 17 17 17 16 16 16 16 16 16 16 16 16 16 16 16 16 16 16 16 16 16 15 15 15 15 15 14 14 14
11 10 11 11 11 12 12 12 12 15 15 15 15 16 16 16 17 17 17 17 17 17 17 16 16 16 16 15 15 15 15 15 15 15 15 15 15 15 15 15 15 15 14 14 14 14 14 14 14
10 9 10 10 11 11 12 11 13 14 14 14 15 16 16 16 17 17 17 17 17 17 16 16 16 16 15 15 15 15 15 15 15 15 15 15 15 15 15 15 15 14 14 14 14 14 13 13 13
9 8 9 10 10 10 11 11 12 14 13 14 15 15 16 16 16 17 17 17 17 17 16 16 16 16 16 15 15 15 15 14 14 14 14 14 14 14 14 15 15 14 14 14 13 13 13 13 13
7 7 8 9 10 10 10 11 12 13 13 13 14 15 16 16 16 17 17 17 17 17 16 16 16 16 15 15 15 15 15 15 14 14 14 14 14 14 14 14 14 14 14 14 14 13 13 13 13
8 8 9 10 10 10 10 11 12 12 12 13 14 15 15 16 17 17 17 17 17 17 17 16 16 16 16 15 15 15 15 15 15 15 15 14 14 14 14 14 14 14 14 14 13 13 13 13 13
9 8 9 10 11 11 10 11 12 12 12 13 14 14 15 16 16 17 17 17 17 17 17 17 16 16 16 16 15 15 15 15 15 15 15 15 14 14 14 14 14 14 14 14 13 13 13 13 13
9 8 8 9 10 11 11 11 11 11 12 13 14 14 15 15 16 16 16 17 17 17 16 16 16 16 16 15 15 15 15 15 15 15 15 15 14 14 14 14 14 14 13 13 13 13 13 12 12
9 9 9 10 9 9 10 9 9 10 11 11 13 14 15 15 15 15 16 16 16 16 16 16 16 15 15 15 15 15 15 15 15 14 14 14 14 14 14 14 14 14 13 13 13 13 13 12 12
9 9 9 9 9 8 9 8 8 9 9 11 12 13 14 15 15 15 15 15 15 15 15 15 15 15 15 15 14 14 14 14 14 14 14 14 14 13 13 13 13 13 13 13 12 12 12 12 11
8 8 8 7 8 8 8 8 8 8 9 10 11 13 14 15 15 14 14 14 14 14 14 14 14 14 14 13 13 13 13 13 13 13 13 13 13 13 12 12 12 12 12 12 12 12 11 11 11
9 8 7 7 7 7 7 8 8 9 9 9 11 12 13 14 14 13 13 13 13 13 13 13 13 12 12 12 12 12 12 12 12 12 12 12 12 11 11 11 11 11 11 11 11 11 10 10 10
8 8 7 7 7 6 7 6 8 8 9 10 10 11 12 12 12 12 13 12 12 12 12 12 12 11 11 11 11 11 11 11 11 11 10 10 10 10 10 10 10 10 10 10 10 10 10 9 9
7 7 7 6 6 6 6 6 6 8 8 8 9 10 10 11 11 11 11 11 11 11 11 11 11 11 10 10 10 10 10 10 9 9 9 9 9 9 9 9 9 9 9 9 9 9 9 9 8
8 7 6 6 6 7 7 7 7 9 9 8 7 8 8 9 10 10 10 11 11 10 10 10 10 10 9 9 9 9 9 8 8 8 8 8 8 8 8 8 8 8 8 8 8 8 8 8 8
7 7 7 6 6 6 7 7 8 8 8 7 7 8 8 9 10 10 10 10 10 10 10 10 9 9 8 8 8 8 8 7 7 7 7 7 7 7 7 7 7 7 7 7 7 7 7 7 7
7 7 6 7 6 5 5 7 8 7 6 6 7 8 8 9 10 10 10 10 10 10 9 9 8 8 8 7 7 7 7 6 6 6 6 6 6 6 6 6 6 6 6 7 7 7 6 6 6
Wind_Speed
7 5 3 4 5 4 3 5 3 5 3 2 2 3 7 6 5 3 2 8 10 10 16 19 18 17 16 16 16 15 15 13 12 11 11 12 12 13 13 14 14 14 14 15 15 16 16 16 15
4 2 5 5 5 2 5 5 4 5 4 2 2 3 4 2 1 4 6 7 12 13 16 17 18 17 17 17 16 15 14 13 11 10 11 12 13 14 15 14 14 14 14 14 14 15 14 14 12
2 3 4 5 5 7 5 4 4 6 6 2 1 2 3 2 3 6 6 11 11 11 15 17 19 18 18 17 17 15 14 12 11 10 12 13 14 14 14 14 13 13 13 13 13 13 12 11 11
2 4 5 4 6 6 5 1 3 6 4 0 2 3 2 3 3 5 10 14 12 9 15 18 19 19 19 18 17 15 14 12 10 10 12 13 14 14 14 13 12 12 11 11 11 11 10 10 10
3 4 4 3 6 5 4 3 3 3 4 2 3 3 3 6 4 10 14 15 13 9 14 18 19 19 19 18 17 15 13 12 11 10 12 13 14 14 13 12 11 10 10 9 9 9 9 9 9
3 4 4 6 6 3 2 2 2 3 3 2 3 3 2 2 7 11 13 13 10 9 12 17 19 20 19 18 16 15 13 12 11 10 11 12 13 13 12 11 10 9 8 7 7 7 7 7 8
5 5 7 7 5 3 2 1 3 3 3 3 1 3 1 3 6 9 10 10 8 9 10 13 17 18 18 17 16 15 13 12 11 10 12 12 12 12 10 9 9 8 7 6 5 5 5 5 6
4 5 7 7 7 5 2 2 2 2 3 4 2 4 4 5 8 10 10 9 8 7 7 9 13 15 16 15 15 14 13 12 11 11 12 12 12 11 9 8 7 6 6 5 3 3 3 4 5
4 5 9 10 9 6 3 3 4 1 2 4 4 3 2 10 12 12 10 8 8 8 6 7 9 12 13 14 13 13 12 11 10 10 11 11 9 8 8 7 6 6 5 4 3 2 2 2 4
5 9 12 8 7 6 4 3 3 5 6 5 7 9 3 10 14 13 12 12 11 10 8 6 7 10 11 11 11 11 10 10 10 9 10 9 8 7 6 6 6 5 5 4 4 3 1 1 2
6 9 8 5 5 4 3 2 2 4 3 3 6 7 1 8 12 13 13 13 12 11 9 8 7 9 10 8 9 9 9 9 9 10 10 8 6 5 4 4 4 5 5 4 4 3 2 1 1
5 4 6 4 4 4 4 2 1 2 4 2 4 3 3 8 12 14 14 13 11 10 10 9 8 8 9 9 9 9 8 8 9 10 11 9 6 5 5 5 6 6 6 5 5 5 5 4 4
4 3 5 5 5 4 3 2 2 5 4 3 5 4 3 8 9 9 9 10 10 11 10 9 8 8 8 7 7 8 8 9 11 11 12 12 8 6 7 7 7 8 8 7 7 7 6 6 6
6 3 5 6 5 3 3 2 3 9 3 6 7 6 4 6 8 7 8 9 10 10 10 8 9 8 8 6 6 7 10 10 10 11 13 14 12 9 8 7 7 9 11 11 10 9 7 6 6
5 5 3 4 6 3 3 5 9 12 6 8 8 7 7 6 6 8 9 9 9 8 8 8 9 8 8 7 8 9 10 11 10 12 14 15 14 12 10 7 7 10 13 12 9 8 7 5 5
6 6 5 5 7 6 8 11 12 8 5 10 9 7 7 6 6 6 6 6 6 7 7 8 8 8 9 7 8 8 10 11 11 12 13 15 16 15 12 7 7 12 11 9 6 5 5 6 6
5 8 8 6 8 7 9 8 9 7 7 11 10 8 7 7 5 4 4 4 5 6 6 6 6 7 8 7 7 8 8 9 10 11 11 13 15 16 13 10 10 12 9 7 6 6 5 7 8
10 8 7 8 8 10 12 9 5 9 11 13 11 8 7 7 7 3 2 1 2 3 4 4 4 3 5 4 3 3 4 4 7 9 10 12 12 14 13 10 10 10 6 6 7 8 7 7 7
9 8 6 5 5 8 10 7 6 8 10 12 11 10 9 8 5 1 0 2 3 3 3 3 3 2 3 3 3 3 3 3 3 5 8 9 10 11 11 8 7 7 8 9 9 7 8 8 4
9 9 7 3 5 6 6 7 6 8 10 11 13 12 10 8 4 3 1 2 3 4 4 3 3 3 2 2 2 2 1 1 2 2 3 5 6 8 8 7 6 6 7 8 8 8 5 5 5
6 10 8 6 4 3 5 5 9 8 7 8 9 9 9 10 9 7 4 3 4 4 4 4 4 4 3 2 2 2 2 1 1 1 1 2 4 4 5 6 6 5 7 8 9 8 8 7 5
4 6 8 8 7 1 4 4 8 9 9 12 13 11 10 9 8 7 6 5 5 4 4 5 5 5 4 3 3 2 2 1 1 1 2 3 4 3 4 4 4 4 5 7 7 7 7 7 7
5 6 7 6 6 2 1 3 8 5 11 16 15 13 11 10 10 9 8 6 5 4 5 5 6 7 6 5 4 3 1 0 1 2 3 3 4 4 5 4 3 3 4 5 6 5 6 6 7
7 9 8 6 4 3 6 5 8 7 11 9 10 12 11 10 10 8 7 7 5 5 5 6 7 7 6 6 5 4 2 1 2 3 3 3 3 3 5 6 4 3 3 4 5 5 5 6 6
6 8 4 2 3 6 4 6 10 8 9 9 10 9 8 10 11 11 10 8 7 6 6 6 7 6 6 6 5 4 3 2 2 2 2 3 3 3 5 5 4 4 4 4 3 3 4 4 5
5 7 7 6 6 3 3 8 9 8 7 7 8 7 7 9 10 11 11 9 8 7 7 6 6 5 5 5 5 4 4 3 2 3 2 3 2 3 5 5 5 5 5 4 3 2 2 2 2
7 4 5 5 3 1 6 7 10 7 7 7 7 6 8 9 10 9 9 8 8 7 6 6 6 5 4 4 4 5 5 4 4 4 3 3 3 3 5 5 5 5 6 5 4 3 3 2 3
5 8 5 5 5 4 6 5 5 7 8 7 6 6 7 8 8 8 8 7 6 6 5 6 6 5 4 4 4 4 4 4 4 4 5 5 5 5 5 6 6 6 6 6 5 4 5 5 5
5 5 5 4 4 5 4 7 6 7 8 9 9 7 7 9 9 8 7 7 6 6 6 6 5 5 4 4 4 5 4 4 5 5 5 5 5 5 6 6 6 7 7 7 7 7 7 7 7
4 6 7 5 5 4 4 8 6 6 8 8 7 5 7 8 7 7 8 7 6 6 6 5 5 5 4 4 5 5 4 5 5 5 5 5 6 5 6 6 7 7 8 8 8 8 8 8 8
Wind_Direction
339 356 48 55 59 61 227 243 245 288 270 276 280 156 151 155 169 189 116 142 138 146 155 154 154 151 146 141 136 132 129 125 122 121 121 121 119 118 115 109 104 99 96 96 98 100 99 96 93
337 15 52 64 105 156 251 245 247 253 281 328 28 81 99 94 73 117 138 155 145 147 151 152 152 148 144 140 137 135 132 128 126 126 127 127 125 121 118 113 108 103 101 100 101 102 100 96 91
344 42 87 91 140 181 225 220 243 281 281 234 86 49 105 120 152 156 158 151 142 143 147 151 150 147 142 140 139 136 134 131 129 131 132 132 130 125 120 117 112 108 106 105 105 103 100 94 87
74 59 66 114 192 210 217 242 291 323 337 160 135 79 64 1 193 158 143 147 141 137 145 151 148 145 143 142 141 139 136 135 132 133 137 136 133 128 123 119 116 113 111 111 109 106 100 91 85
69 101 110 173 214 231 235 266 301 346 324 357 121 116 20 354 85 130 141 147 146 141 146 151 148 146 145 144 143 142 141 140 137 136 139 138 134 131 128 125 123 120 118 117 115 111 103 91 83
99 103 147 199 217 237 249 284 2 0 329 356 113 97 12 41 122 137 143 144 144 142 145 150 149 147 146 146 147 147 147 146 144 141 140 138 136 135 134 134 133 131 128 124 119 113 105 93 85
146 146 177 184 192 219 213 23 73 352 345 323 142 107 85 122 135 132 132 131 130 138 142 147 149 148 148 150 152 153 153 153 152 146 141 140 139 141 143 144 144 143 139 133 126 116 105 93 86
158 147 167 181 181 204 176 80 78 26 302 318 52 147 184 170 137 124 126 129 132 133 139 144 148 148 149 153 156 157 159 159 157 152 145 144 146 149 152 156 158 158 155 149 144 132 111 90 87
137 163 193 189 184 191 153 90 2 351 8 17 17 338 258 139 136 134 137 142 152 155 149 146 145 146 150 154 159 161 163 164 160 156 153 149 151 156 161 169 175 175 173 173 176 172 132 96 87
162 196 206 192 183 166 138 104 37 34 25 25 11 2 56 144 151 154 159 164 170 174 171 161 151 149 152 157 158 160 162 165 163 162 162 161 163 167 173 187 195 197 195 198 209 212 184 128 99
178 202 201 192 187 147 120 94 67 65 32 43 346 331 284 170 167 169 172 175 179 180 180 174 163 158 158 153 157 161 164 168 172 176 176 175 176 182 185 198 214 219 218 221 235 245 241 246 245
180 217 176 175 162 150 149 141 77 146 219 292 316 291 230 199 189 184 182 183 181 182 187 180 171 166 168 162 167 170 172 178 184 190 189 183 184 195 204 212 220 224 225 227 235 242 250 258 261
181 180 164 148 135 144 152 214 269 261 259 320 353 357 259 223 212 203 193 186 181 188 190 185 177 176 174 170 176 182 189 194 198 199 200 198 195 202 210 219 225 229 230 230 232 237 245 254 261
174 144 140 144 136 133 152 270 287 268 310 339 339 323 293 246 219 201 194 190 191 193 193 186 185 183 179 180 186 193 200 204 205 208 210 210 209 210 212 219 224 230 231 232 232 235 239 249 256
134 129 115 154 148 150 110 264 248 256 302 306 304 304 298 267 233 214 204 196 196 196 192 189 191 186 185 190 195 200 205 207 209 216 218 216 217 218 217 220 226 233 235 234 235 239 239 244 246
117 136 166 194 157 152 163 235 244 250 268 274 278 287 288 277 248 237 221 205 197 190 188 192 195 187 193 196 198 203 206 208 216 220 221 221 221 222 220 223 231 235 232 225 223 225 234 242 242
147 171 176 184 172 156 177 229 238 215 229 253 260 264 270 279 274 257 235 214 196 190 185 185 188 183 192 196 200 205 207 211 218 221 224 226 225 224 222 228 233 230 224 222 227 227 222 240 243
172 161 163 180 184 169 190 215 220 194 211 233 246 249 253 258 263 267 251 209 150 148 159 166 168 172 176 176 179 194 206 215 219 220 225 229 230 228 225 231 231 221 219 227 226 232 226 235 243
133 135 152 183 179 175 201 213 218 201 208 224 237 245 243 247 259 280 117 119 116 107 127 143 147 142 137 142 163 184 209 214 219 225 229 230 233 231 226 233 229 216 223 230 226 227 233 239 225
138 141 149 143 157 168 198 225 232 212 211 218 223 234 236 235 230 218 171 109 117 116 110 109 112 104 117 140 147 159 167 195 215 231 235 239 245 242 234 232 233 223 227 233 229 220 226 230 190
157 159 155 141 108 92 137 236 237 237 223 227 229 227 226 217 210 202 186 150 123 116 115 111 100 91 81 98 104 80 64 31 15 351 324 315 298 279 261 252 244 235 228 237 237 226 228 242 220
156 163 141 129 127 165 160 237 256 232 239 236 233 224 222 214 200 192 184 168 147 129 110 101 93 81 68 75 98 128 157 215 272 311 312 322 327 316 303 286 269 256 246 246 246 234 229 236 243
142 127 114 118 121 109 153 209 273 227 233 238 234 225 218 208 194 188 181 165 140 122 109 100 90 75 63 65 84 103 114 213 321 336 335 339 343 351 348 329 307 282 267 262 260 252 239 236 243
122 91 67 59 88 222 207 195 267 227 220 236 233 223 214 200 189 175 159 142 127 112 102 98 90 73 61 65 66 82 92 55 11 354 344 340 339 347 358 353 346 326 305 287 275 264 253 246 245
118 112 100 116 202 241 201 209 248 242 230 228 238 235 216 191 178 168 161 156 144 128 113 101 94 79 62 64 59 59 65 67 46 356 348 350 352 351 348 353 347 339 327 313 296 278 269 256 249
150 134 155 174 197 241 224 234 254 257 267 260 258 248 210 188 178 173 167 157 147 137 126 116 107 95 75 70 61 51 51 56 46 29 21 12 356 342 344 352 355 353 347 341 331 320 309 299 276
134 136 136 118 114 204 250 279 299 271 272 265 260 233 203 185 175 167 157 150 146 141 136 131 121 106 87 79 75 58 50 51 44 32 29 19 2 356 6 8 8 7 6 5 10 22 12 22 25
135 138 113 128 159 234 273 267 254 281 280 284 265 237 205 171 161 157 154 151 146 138 128 120 118 114 99 83 76 77 57 51 47 46 38 28 17 16 19 23 24 23 20 21 34 38 36 53 44
118 128 130 142 166 180 257 270 231 246 273 274 262 229 190 173 167 163 157 150 140 133 131 126 121 115 104 93 85 78 63 55 56 53 42 35 33 32 34 33 37 37 33 32 45 47 45 57 53
158 166 154 170 209 192 207 268 273 267 277 265 249 206 180 174 167 160 155 150 150 149 145 137 132 125 119 111 99 88 74 66 61 55 46 47 48 42 43 46 51 50 47 45 52 57 55 60 58
Height
1520 1521 1523 1525 1529 1540 1540 1533 1528 1525 1522 1520 1519 1518 1519 1522 1526 1530 1525 1526 1529 1532 1536 1540 1544 1547 1549 1551 1552 1553 1554 1555 1556 1556 1557 1558 1559 1560 1560 1561 1561 1561 1561 1561 1561 1562 1562 1563 1564
1519 1521 1524 1525 1535 1545 1540 1530 1527 1523 1521 1519 1519 1519 1519 1520 1521 1522 1522 1526 1530 1533 1537 1540 1544 1547 1549 1551 1553 1554 1555 1556 1557 1557 1558 1559 1560 1561 1562 1563 1563 1563 1563 1563 1564 1564 1565 1565 1566
1518 1521 1524 1527 1536 1540 1533 1525 1523 1521 1519 1519 1519 1519 1520 1520 1521 1522 1524 1527 1530 1534 1537 1541 1544 1547 1550 1552 1553 1555 1556 1556 1557 1559 1560 1561 1562 1563 1564 1565 1565 1566 1566 1566 1566 1566 1567 1568 1568
1518 1521 1523 1530 1532 1529 1525 1522 1521 1520 1518 1518 1518 1519 1520 1522 1522 1524 1525 1528 1531 1535 1538 1542 1545 1548 1550 1552 1554 1555 1556 1557 1558 1560 1561 1562 1564 1565 1566 1566 1567 1567 1568 1568 1568 1569 1569 1570 1570
1516 1519 1525 1531 1528 1524 1521 1521 1520 1520 1519 1519 1519 1519 1520 1522 1522 1525 1527 1529 1532 1535 1539 1542 1545 1548 1551 1553 1554 1556 1557 1558 1559 1561 1562 1563 1565 1566 1567 1568 1569 1569 1570 1570 1570 1570 1571 1571 1572
1515 1517 1528 1531 1526 1521 1520 1520 1520 1520 1519 1519 1519 1520 1521 1522 1524 1526 1528 1530 1533 1536 1540 1543 1546 1549 1551 1553 1555 1557 1558 1559 1560 1561 1563 1564 1565 1567 1568 1569 1570 1570 1571 1571 1572 1572 1572 1572 1573
1513 1517 1522 1524 1523 1521 1519 1519 1520 1520 1520 1520 1520 1521 1521 1523 1525 1527 1529 1531 1534 1537 1540 1544 1546 1549 1551 1553 1555 1557 1559 1560 1561 1562 1564 1565 1566 1567 1568 1569 1570 1571 1572 1572 1573 1573 1573 1573 1574
1508 1514 1519 1521 1521 1519 1518 1518 1520 1520 1520 1521 1521 1521 1521 1523 1525 1528 1530 1532 1535 1538 1541 1544 1547 1549 1551 1553 1555 1557 1559 1561 1562 1563 1564 1565 1567 1568 1569 1570 1571 1572 1572 1573 1574 1574 1574 1574 1575
1507 1514 1516 1516 1516 1516 1516 1518 1519 1520 1520 1521 1521 1522 1522 1523 1525 1528 1530 1533 1535 1538 1541 1544 1546 1548 1551 1553 1555 1557 1559 1560 1562 1563 1564 1565 1567 1568 1569 1570 1571 1572 1573 1573 1574 1574 1575 1575 1575
1505 1509 1507 1507 1509 1512 1515 1517 1519 1519 1520 1521 1522 1522 1522 1524 1525 1527 1530 1532 1535 1538 1540 1543 1546 1548 1550 1553 1555 1556 1558 1560 1561 1563 1564 1565 1566 1567 1568 1569 1570 1571 1572 1573 1574 1574 1575 1575 1575
1501 1503 1503 1506 1508 1511 1514 1517 1518 1520 1522 1524 1524 1524 1524 1525 1526 1528 1530 1532 1535 1537 1540 1542 1545 1547 1550 1552 1554 1556 1558 1559 1561 1562 1563 1564 1565 1566 1567 1568 1569 1570 1571 1572 1573 1573 1574 1574 1574
1500 1500 1502 1504 1507 1510 1514 1516 1518 1520 1522 1523 1524 1524 1525 1526 1526 1528 1529 1532 1535 1537 1539 1541 1543 1546 1549 1551 1553 1555 1557 1558 1560 1561 1562 1563 1564 1566 1567 1568 1569 1569 1570 1571 1572 1572 1573 1573 1573
1498 1499 1501 1504 1507 1510 1513 1515 1517 1517 1519 1522 1523 1524 1525 1526 1527 1529 1530 1532 1534 1536 1538 1540 1543 1545 1547 1550 1552 1554 1555 1557 1559 1560 1561 1562 1563 1565 1566 1566 1567 1568 1569 1569 1570 1570 1571 1571 1571
1497 1499 1501 1503 1507 1510 1513 1515 1517 1514 1518 1520 1522 1523 1524 1526 1527 1528 1529 1531 1533 1535 1537 1539 1542 1544 1546 1548 1550 1552 1554 1556 1557 1558 1560 1561 1562 1563 1564 1565 1566 1566 1567 1568 1568 1568 1568 1568 1568
1496 1500 1503 1504 1507 1510 1514 1517 1514 1514 1518 1519 1521 1522 1523 1525 1526 1527 1528 1530 1532 1534 1536 1538 1540 1543 1545 1547 1549 1551 1553 1554 1555 1557 1558 1559 1560 1561 1562 1562 1563 1564 1565 1565 1565 1565 1565 1565 1565
1496 1502 1507 1506 1506 1510 1518 1517 1511 1512 1517 1518 1519 1521 1522 1523 1524 1526 1527 1529 1531 1533 1535 1537 1539 1541 1543 1545 1547 1549 1551 1552 1553 1555 1556 1557 1558 1559 1559 1560 1560 1562 1562 1562 1562 1562 1561 1561 1561
1498 1505 1506 1506 1505 1508 1514 1514 1510 1512 1515 1516 1517 1519 1520 1521 1522 1524 1525 1527 1529 1531 1533 1535 1537 1539 1541 1543 1545 1547 1548 1549 1551 1552 1553 1554 1555 1556 1556 1556 1557 1558 1558 1558 1558 1558 1558 1557 1557
1497 1502 1504 1506 1504 1507 1510 1510 1508 1509 1513 1514 1515 1516 1518 1519 1520 1522 1524 1525 1527 1529 1531 1533 1535 1537 1539 1541 1543 1544 1545 1546 1548 1548 1550 1551 1551 1552 1552 1552 1553 1553 1553 1553 1554 1553 1553 1553 1552
1494 1499 1503 1503 1502 1506 1508 1509 1508 1509 1511 1512 1512 1513 1515 1516 1518 1520 1521 1523 1525 1527 1529 1531 1533 1534 1536 1538 1539 1541 1542 1543 1544 1545 1546 1547 1547 1548 1548 1548 1548 1548 1548 1548 1549 1548 1548 1547 1547
1492 1499 1502 1502 1501 1505 1509 1510 1507 1507 1508 1508 1509 1510 1511 1513 1515 1517 1519 1520 1522 1524 1526 1528 1530 1532 1534 1535 1537 1538 1539 1540 1541 1542 1542 1542 1543 1543 1543 1543 1543 1543 1543 1543 1543 1543 1542 1541 1542
1493 1498 1501 1502 1504 1505 1509 1511 1508 1504 1504 1505 1505 1506 1508 1509 1511 1513 1515 1517 1519 1521 1523 1525 1526 1528 1530 1532 1533 1534 1535 1536 1537 1537 1537 1538 1538 1538 1537 1537 1537 1537 1537 1536 1537 1537 1536 1536 1536
1494 1495 1497 1501 1507 1513 1511 1518 1508 1503 1502 1500 1499 1500 1502 1505 1507 1509 1512 1514 1516 1518 1519 1521 1523 1525 1526 1528 1529 1530 1530 1531 1531 1532 1532 1532 1532 1532 1531 1531 1531 1530 1530 1530 1530 1531 1530 1530 1529
1492 1493 1498 1503 1509 1514 1514 1518 1509 1501 1500 1493 1492 1494 1496 1500 1503 1506 1508 1511 1513 1514 1516 1518 1519 1521 1522 1523 1524 1525 1525 1526 1526 1526 1526 1526 1526 1526 1525 1525 1524 1524 1523 1523 1523 1523 1523 1523 1523
1491 1497 1503 1508 1512 1517 1515 1518 1509 1500 1492 1488 1487 1488 1490 1494 1498 1501 1504 1507 1509 1511 1513 1515 1516 1517 1518 1519 1519 1520 1520 1520 1521 1520 1520 1520 1520 1519 1519 1518 1518 1517 1517 1517 1516 1516 1516 1516 1516
1492 1501 1512 1515 1517 1518 1513 1512 1500 1488 1485 1484 1483 1483 1485 1488 1492 1496 1499 1502 1505 1508 1510 1512 1513 1514 1514 1515 1515 1516 1516 1516 1516 1515 1515 1515 1514 1514 1513 1512 1512 1511 1511 1510 1510 1510 1510 1510 1510
1493 1498 1509 1514 1517 1518 1514 1511 1495 1484 1481 1480 1480 1480 1481 1483 1486 1490 1495 1499 1502 1505 1507 1509 1510 1511 1511 1511 1512 1512 1511 1511 1511 1511 1510 1510 1509 1508 1508 1507 1507 1506 1506 1505 1505 1504 1504 1504 1504
1494 1498 1502 1512 1516 1517 1514 1506 1494 1480 1478 1477 1476 1476 1476 1479 1483 1487 1492 1496 1500 1502 1505 1506 1507 1508 1508 1508 1508 1508 1507 1507 1507 1506 1506 1505 1505 1504 1503 1503 1502 1502 1501 1501 1500 1499 1499 1499 1499
1490 1496 1505 1511 1515 1513 1507 1504 1496 1482 1478 1476 1475 1474 1475 1477 1482 1487 1491 1495 1498 1500 1502 1503 1504 1504 1504 1504 1504 1504 1503 1503 1503 1502 1502 1501 1501 1500 1500 1499 1498 1498 1497 1497 1496 1495 1495 1495 1495
1494 1496 1500 1507 1510 1513 1510 1501 1484 1481 1478 1476 1473 1473 1475 1477 1481 1486 1490 1494 1496 1498 1500 1500 1501 1501 1501 1501 1500 1500 1500 1499 1499 1499 1498 1498 1497 1497 1496 1495 1495 1494 1494 1493 1492 1492 1491 1491 1491
1489 1492 1498 1504 1508 1512 1514 1500 1477 1478 1475 1473 1472 1473 1475 1478 1482 1486 1489 1492 1494 1496 1497 1497 1498 1498 1498 1497 1497 1497 1496 1496 1496 1495 1495 1494 1494 1493 1493 1492 1492 1491 1490 1490 1489 1489 1488 1488 1487